#timestamp,LO_Frequency,Hit,StdDev 
1624471215.3,286047002.4,N
1624471235.1,286047002.4,N
1624471236.0,286047002.4,N
1624471255.8,286047001.7,N
1624471275.7,286047002.0,N
1624471295.5,286047002.0,N
1624471315.3,286047002.2,N
1624471335.2,286047004.4,N
1624471355.0,286047004.3,N
1624471355.9,286047004.3,N
1624471375.8,286047004.3,N
1624471395.6,286047004.3,N
1624471415.4,286047004.3,N
1624471435.3,286047003.6,N
1624471455.1,286047001.3,N
1624471505.9,286047003.8,E
1624471515.8,286047002.6,N
1624471535.6,286046998.6,P
1624471555.5,286046998.3,N
1624471575.3,286046998.5,N
1624471595.2,286046999.0,N
1624471615.9,286046998.5,N
1624471635.7,286046998.2,N
1624471655.6,286046999.0,N
1624471675.4,286047001.2,N
1624471695.2,286046998.4,N
1624471715.1,286046998.4,N
1624471716.0,286046998.4,N
1624471735.8,286046999.4,N
1624471755.7,286046998.6,N
1624471775.5,286047001.2,N
1624471795.3,286046998.4,N
1624471815.2,286046998.2,N
1624471835.0,286046998.6,N
1624471835.9,286046998.6,N
1624471855.8,286046998.9,N
1624471875.6,286046998.7,N
1624471895.4,286046998.4,N
1624471915.3,286046998.3,N
1624471935.1,286046998.3,N
1624471955.8,286046998.6,N
1624471975.7,286046998.3,N
1624471995.5,286046999.0,N
1624472015.4,286046998.4,N
1624472035.2,286046998.8,N
1624472055.0,286046998.7,N
1624472055.9,286046998.7,N
1624472075.8,286046998.6,N
1624472095.6,286046998.8,N
1624472115.4,286046998.3,N
1624472135.3,286047001.2,N
1624472155.1,286047000.6,N
1624472175.9,286046998.3,N
1624472195.7,286047000.7,N
1624472215.5,286047001.0,N
1624472235.4,286047000.5,N
1624472255.2,286046999.9,N
1624472275.1,286047002.3,N
1624472276.0,286047002.3,N
1624472295.8,286046999.8,N
1624472315.6,286047000.2,N
1624472335.5,286047000.9,N
1624472355.3,286047000.4,N
1624472375.1,286047000.6,N
1624472395.9,286046999.9,N
1624472415.7,286046998.4,N
1624472435.6,286046998.4,N
1624472455.4,286046998.7,N
1624472475.2,286046998.4,N
1624472495.1,286046999.3,N
1624472496.0,286046999.3,N
1624472515.8,286046998.7,N
1624472535.7,286046998.7,N
1624472555.5,286046998.4,N
1624472575.3,286046998.9,N
1624472595.2,286046998.7,N
1624472615.9,286047000.2,N
1624472635.7,286047000.8,N
1624472655.6,286046998.9,N
1624472675.4,286046998.3,N
1624472695.2,286046999.0,N
1624472715.1,286046999.0,N
1624472716.0,286046999.0,N
1624472735.8,286046999.0,N
1624472755.7,286046998.4,N
1624472775.5,286046999.5,N
1624472795.3,286046999.1,N
1624472815.2,286046999.0,N
1624472835.0,286046998.9,N
1624472835.9,286046998.9,N
1624472855.8,286046999.3,N
1624472875.6,286046999.2,N
1624472895.4,286046999.1,N
1624472915.3,286046999.0,N
1624472935.1,286046996.7,Y
1624472955.9,286046998.1,P
1624472975.7,286047001.0,N
1624472995.5,286047000.9,N
1624473015.4,286047000.9,N
1624473035.2,286046999.9,N
1624473055.0,286047001.8,N
1624473055.9,286047001.8,N
1624473075.8,286047001.8,N
1624473095.6,286047004.0,Y
1624473115.5,286047001.4,P
1624473135.3,286047002.8,P
1624473155.1,286047000.3,N
1624473175.9,286047000.3,N
1624473195.7,286047000.0,N
1624473215.6,286046999.7,N
1624473235.4,286047000.1,N
1624473255.2,286047002.6,N
1624473275.1,286047002.1,N
1624473276.0,286047002.1,N
1624473295.8,286047001.8,N
1624473315.6,286047004.1,Y
1624473335.5,286047001.9,P
1624473355.3,286047002.4,P
1624473375.2,286047003.9,P
1624473395.0,286047001.9,N
1624473395.9,286047001.9,N
1624473415.7,286047002.3,N
1624473435.6,286047002.5,Y
1624473455.4,286047000.8,P
1624473475.3,286046998.1,N
1624473495.1,286046998.4,N
1624473515.8,286046998.5,N
1624473535.7,286046998.6,N
1624473555.5,286047000.7,N
1624473575.4,286047001.2,N
1624473595.2,286046998.5,N
1624473615.0,286046998.5,N
1624473615.9,286046998.5,N
1624473635.8,286046998.5,N
1624473655.6,286046997.5,N
1624473675.5,286046995.3,Y
1624473695.3,286046995.6,P
1624473715.1,286046995.5,N
1624473735.9,286046993.5,P
1624473755.7,286046994.1,N
1624473775.5,286046994.8,N
1624473795.4,286046994.7,N
1624473815.2,286046994.4,Y
1624473835.1,286046996.5,P
1624473836.0,286046996.5,P
1624473855.8,286046999.1,N
1624473875.6,286046996.7,N
1624473895.5,286046999.5,N
1624473915.3,286046999.3,N
1624473935.2,286046996.8,N
1624473955.9,286046999.5,N
1624473975.7,286046998.8,N
1624473995.6,286046996.5,N
1624474015.4,286046999.1,N
1624474035.2,286046999.2,N
1624474055.1,286046999.2,N
1624474056.0,286046999.2,N
1624474075.8,286046999.0,N
1624474095.7,286046999.6,N
1624474115.5,286046999.6,N
1624474135.3,286046999.2,N
1624474155.2,286046999.3,N
1624474175.9,286046996.6,N
1624474195.7,286046998.5,N
1624474245.6,286046998.1,E
1624474255.5,286047000.2,N
1624474275.4,286047001.7,P
1624474295.2,286047002.0,N
1624474315.0,286047001.5,N
1624474315.9,286047001.5,N
1624474335.8,286047001.4,N
1624474355.6,286047001.4,N
1624474375.5,286047001.7,Y
1624474395.3,286046999.8,P
1624474415.1,286047000.3,N
1624474435.9,286046999.8,N
1624474455.7,286047002.3,Y
1624474475.5,286047000.2,P
1624474495.4,286047002.4,P
1624474515.2,286047001.9,N
1624474535.1,286047001.8,N
1624474536.0,286047001.8,N
1624474555.8,286047002.1,N
1624474575.6,286047001.9,N
1624474595.5,286047002.6,Y
1624474615.3,286046998.1,P
1624474635.2,286047000.8,N
1624474655.9,286047000.9,N
1624474675.7,286047000.7,N
1624474695.6,286047000.6,N
1624474715.4,286047000.2,N
1624474735.3,286047000.3,N
1624474755.1,286047000.4,N
1624474756.0,286047000.4,N
1624474775.8,286047000.2,N
1624474795.7,286046999.9,N
